Regional Weather Roundup
Issued by NWS

Home | Current Version | Previous Version | Text Only | Print | Product List | Glossary Off
Versions: 1 2 3 4 5 6 7 8 9 10 11 12 13 14 15 16 17 18 19 20 21 22 23 24 25 26 27 28 29 30 31 32 33 34 35 36 37 38 39 40 41 42 43 44 45 46 47 48 49 50

000
ASUS45 KPSR 241910
RWRAZ

ARIZONA HOURLY REGIONAL WEATHER ROUNDUP
NATIONAL WEATHER SERVICE PHOENIX AZ
1200 PM MST SUN MAY 24 2015

NOTE: FAIR INDICATES FEW OR NO CLOUDS BELOW 12,000 FEET WITH NO
SIGNIFICANT WEATHER AND/OR OBSTRUCTIONS TO VISIBILITY.

AZZ001>003-036-242000-
NORTHWEST ARIZONA

CITY           SKY/WX    TMP DP  RH WIND       PRES   REMARKS
BULLHEAD CITY  MOSUNNY   82  45  26 SW7       29.86F
KINGMAN        MOSUNNY   73  37  27 SW12      29.96F
$$

AZZ004>008-015-016-018-242000-
NORTH CENTRAL ARIZONA

CITY           SKY/WX    TMP DP  RH WIND       PRES   REMARKS
GRAND CANYON   LGT RAIN  46  42  86 SW9       30.08S
WILLIAMS       CLOUDY    50  39  66 SW8       30.15F
PRESCOTT       CLOUDY    62  34  35 W6        30.02F
FLAGSTAFF      CLOUDY    52  37  56 VRB7      30.08S
PAYSON         MOSUNNY   64  34  32 VRB5G13   30.03F
PAGE           PTSUNNY   62  48  60 S3        29.95F
$$

AZZ009>014-017-242000-
NORTHEAST ARIZONA

CITY           SKY/WX    TMP DP  RH WIND       PRES   REMARKS
WINSLOW        CLOUDY    66  37  34 VRB6      29.99F
SAINT JOHNS    PTSUNNY   65  28  24 W15G23    29.99F
WINDOW ROCK    CLOUDY    52  37  56 W10       30.05F
SHOW LOW       MOSUNNY   59  28  31 S9G17     30.05F
$$

AZZ023-242000-
GREATER PHOENIX AREA

CITY           SKY/WX    TMP DP  RH WIND       PRES   REMARKS
PHOENIX        CLOUDY    78  40  25 CALM      29.89F
BUCKEYE        PTSUNNY   77  39  25 E3        29.91F
GLENDALE       PTSUNNY   77  41  27 CALM      29.91F
LUKE AFB       PTSUNNY   76  43  30 SW7       29.89S
DEER VALLEY    PTSUNNY   77  41  27 S6        29.89F
SCOTTSDALE     PTSUNNY   76  40  27 CALM      29.91F
MESA-FALCON    PTSUNNY   77  39  25 S9        29.90F
MESA-GATEWAY   PTSUNNY   75  43  31 SW6       29.92F
CHANDLER       PTSUNNY   77  41  27 S7        29.91F
$$

AZZ027-028-242000-
SOUTHWEST MARICOPA COUNTY AND PINAL COUNTY

CITY           SKY/WX    TMP DP  RH WIND       PRES   REMARKS
CASA GRANDE    PTSUNNY   75  39  27 CALM      29.90S
GILA BEND      FAIR      78  39  24 VRB3      29.89F
$$

AZZ503-504-507>509-242000-
SOUTHEAST ARIZONA

CITY           SKY/WX    TMP DP  RH WIND       PRES   REMARKS
TUCSON         SUNNY     77  34  21 CALM      29.94F
DAVIS-MONTHAN  MOSUNNY   76  35  23 SW12      29.92F
RYAN FIELD       N/A     79  36  21 N8        29.93F
NOGALES        SUNNY     75  26  16 SW10      29.97F
SIERRA VISTA   MOSUNNY   72  23  15 W9        30.00S
DOUGLAS        SUNNY     75  22  13 W14G20    29.97F
SAFFORD        SUNNY     77  32  19 VRB7      29.93F
$$

AZZ020-021-025-026-031-242000-
SOUTHWEST ARIZONA

CITY           SKY/WX    TMP DP  RH WIND       PRES   REMARKS
YUMA           SUNNY     80  46  30 SW7       29.89F
$$

CAZ031-033-041-043-047-048-061-242000-
SOUTHERN CALIFORNIA

CITY           SKY/WX    TMP DP  RH WIND       PRES   REMARKS
DOWNTOWN L.A.  CLOUDY    68  51  54 CALM      30.01S
L.A. AIRPORT   MOSUNNY   65  51  60 W14       30.03S
SAN DIEGO      PTSUNNY   66  48  52 S8        30.04F
BURBANK        PTSUNNY   66  50  56 SE5       30.01S
ONTARIO        PTSUNNY   66  51  58 SW8       30.01F
RIVERSIDE      CLOUDY    66  51  58 VRB3      30.01F
PALM SPRINGS   MOSUNNY   80  47  31 N16G24    29.89F
EL CENTRO NAS  SUNNY     81  44  27 W9G17     29.89F
IMPERIAL       SUNNY     81  46  29 W10       29.87F
BLYTHE         SUNNY     79  49  34 E3        29.88S
NEEDLES        SUNNY     83  40  21 VRB6      29.86F
$$

NVZ020-UTZ003-242000-
SOUTHERN NEVADA-UTAH

CITY           SKY/WX    TMP DP  RH WIND       PRES   REMARKS
LAS VEGAS      MOSUNNY   75  47  36 S8        29.86F
SALT LAKE CITY MOSUNNY   60  45  57 VRB6      29.95F
$$

NMZ009-TXZ055-242000-
NEW MEXICO-WEST TEXAS

CITY           SKY/WX    TMP DP  RH WIND       PRES   REMARKS
ALBUQUERQUE    PTSUNNY   66  33  29 VRB5      29.96F
EL PASO        MOSUNNY   77  25  14 SW15G24   29.95F
$$


........................KEY........................
SKY/WX - SKY CONDITION/WEATHER
TMP    - TEMPERATURE IN FAHRENHEIT
DP     - DEW POINT IN FAHRENHEIT
RH     - RELATIVE HUMIDITY IN PERCENT
WIND   - DIRECTION AND SPEED IN MILES PER HOUR (MPH)
VRB    - VARIABLE WIND DIRECTION
PRES   - MEAN SEA LEVEL PRESSURE IN INCHES OF MERCURY
         F - FALLING PRESSURE   R - RISING PRESSURE
         S - STEADY PRESSURE
VSB    - VISIBILITY IN MILES
HX     - HEAT INDEX IN FAHRENHEIT
WCI    - WIND CHILL INDEX IN FAHRENHEIT
TC     - TEMPERATURE IN CELSIUS WHICH IS ALSO KNOWN AS
         TEMPERATURE IN CENTIGRADE
AFB    - AIR FORCE BASE
         LUKE AFB IS LUKE AIR FORCE BASE
         DAVIS-MONTHAN IS DAVIS-MONTHAN AIR FORCE BASE
NAS    - NAVAL AIR STATION
         EL CENTRO NAS IS EL CENTRO NAVAL AIR STATION
N/A    - NOT AVAILABLE




USA.gov is the U.S. government's official web portal to all federal, state and local government web resources and services.